Regional Weather Roundup
Issued by NWS

Home | Current Version | Previous Version | Text Only | Print | Product List | Glossary On
Versions: 1 2 3 4 5 6 7 8 9 10 11 12 13 14 15 16 17 18 19 20 21 22 23 24 25 26 27 28 29 30 31 32 33 34 35 36 37 38 39 40 41 42 43 44 45 46 47 48 49 50
000
ASUS44 KLIX 250111
RWRLA
LOUISIANA WEATHER ROUNDUP
NATIONAL WEATHER SERVICE NEW ORLEANS LA
800 PM CDT TUE MAY 24 2016

NOTE: "FAIR" INDICATES FEW OR NO CLOUDS BELOW 12,000 FEET WITH NO
      SIGNIFICANT WEATHER AND/OR OBSTRUCTIONS TO VISIBILITY.
      SKY/WX - SKY CONDITION AND SIGNIFICANT WEATHER.
      TMP - AIR TEMPERATURE.    DP   - DEWPOINT TEMPERATURE.
      RH  - RELATIVE HUMIDITY.  PRES - PRESSURE.
      HX  - HEAT INDEX.         WCI  - WIND CHILL INDEX.

*  THESE STATIONS ARE NOT NWS OR FAA STATIONS AND ARE NOT UNDER
   NWS QUALITY CONTROL.

LAZ040-048-061>063-065-066-069-250200-
SOUTHEAST LOUISIANA

CITY           SKY/WX    TMP DP  RH WIND       PRES   REMARKS
N.O. AUDUBON   NOT AVBL
N.O. INTL ARPT PTCLDY    81  71  71 SE10      30.07R
N.O. LAKEFRONT CLEAR     80  70  71 SE12      30.08R
N.O. DOWNTOWN* FAIR      81  72  74 VRB3      30.09R
RESERVE*       FAIR      81  71  72 SE7       30.07R
SLIDELL        PTCLDY    78  70  76 SE7       30.08S
BATON ROUGE    CLEAR     80  70  71 E10       30.05R
BOOTHVILLE     CLEAR     76  71  85 SE5       30.09R
BELLE CHASSE   PTCLDY    79  72  79 SE10      30.07R
BOGALUSA*      FAIR      80  66  62 S7        30.10R
GALLIANO*      PTCLDY    79  72  78 SE6       30.07R
NEW ROADS*     MOCLDY    82  72  71 E8        30.04R
GONZALES*      FAIR      82  71  69 S10       30.05R
HAMMOND*       CLEAR     77  68  73 SE8       30.08R
HOUMA*           N/A     78  73  86 SE8       30.07R
PORT FOURCHON* PTCLDY    79  73  83 SE12      30.08R

$$

LAZ041-044-053-054-250200-
SOUTHWEST LOUISIANA

CITY           SKY/WX    TMP DP  RH WIND       PRES   REMARKS
LAKE CHARLES   PTCLDY    80  74  81 S10       30.01S
LAFAYETTE      CLEAR     82  71  69 S10       30.04R
PATTERSON      CLEAR     79  73  83 SE6       30.06R
SALT POINT       N/A     79  74  84 SE7       30.04R
NEW IBERIA     CLEAR     80  72  76 S10       30.05R
CHENAULT AIRPK NOT AVBL

$$

LAZ027-028-250200-
CENTRAL LOUISIANA

CITY           SKY/WX    TMP DP  RH WIND       PRES   REMARKS
FORT POLK      PTCLDY    82  72  73 S12       30.01R
ALEXANDRIA INT CLEAR     82  69  64 S8        29.99R
ALEXANDRIA     CLEAR     84  70  62 S3        30.02R

$$

LAZ001-002-250200-
NORTHWEST LOUISIANA

CITY           SKY/WX    TMP DP  RH WIND       PRES   REMARKS
SHREVEPORT     CLOUDY    84  72  67 SE8       29.98R
BARKSDALE AFB  PTCLDY    82  71  69 SE6       29.99R
DTN SHREVEPORT PTCLDY    84  71  65 SE7       29.98R

$$

LAZ014-016-250200-
NORTHEAST LOUISIANA

CITY           SKY/WX    TMP DP  RH WIND       PRES   REMARKS
MONROE         CLEAR     83  69  62 SE3       30.02R
TALLULAH       CLEAR     83  61  47 S3        30.04R

$$




USA.gov is the U.S. government's official web portal to all federal, state and local government web resources and services.